UACCLTBS

Guest
Details From UACC - Astana Intl
To LTBS - Dalaman
Flight Number -
Tags Generated
Created
Modified
Stats Distance 2,003 nm / 3,710 km
Max Altitude 0 ft / 0 m
Waypoints 6
Social Downloads 0
Likes 0
Share VATSIM

Download

Looking for another format? Having issues loading an existing format? Contact us
Advertisement - Login to hide

Notes

Generated

Route

UACC KUSOT ALMAR CRM DAL05 LTBS

ID Type Via Altitude Latitude Longitude Leg Dist Tot Dist Heading (true) Name
O UACC APT - 0 ft / 0 m 51.01097˚ 71.44957˚ - 0 nm - -
KUSOT FIX - 0 ft / 0 m 50.35778˚ 65.85278˚ 216 nm 216 nm 262° / 257° -
ALMAR FIX - 0 ft / 0 m 45.21667˚ 45.21667˚ 884 nm 1101 nm 258° / 242° -
CRM VOR - 0 ft / 0 m 41.26550˚ 36.54887˚ 446 nm 1548 nm 241° / 235° CARSAMBA VOR-DME
DAL05 FIX - 0 ft / 0 m 36.77057˚ 28.80704˚ 450 nm 1998 nm 236° / 231° -
O LTBS APT - 0 ft / 0 m 36.70016˚ 28.78809˚ 4 nm 2003 nm 192° / 192° -

Altitude Profile

Advertisement - Login to hide

Weather


0- 5 10 15 20 25 30 35+ Temperature / ° C

Clouds and Precipitation
Forecast for 2018-05-22 18:00 UTC. Updated an hour ago

Ground ~20,000 ft ~40,000 ft Winds

UACC

Details ICAO UACC (TSE)
Name Astana INTL
Region Kazakhstan and Kyrgyzstan
Timezone Asia/Almaty (UTC+6.0)
Stats Elevation 1,165 ft / 355 m (AMSL)
Location 51.022180° 71.467062°
Runways 1
Magnetic Variation 9.865° E

METAR

UACC 221800Z 25005MPS CAVOK 08/06 Q1011 R22/0///70 NOSIG RMK QFE727/0969

Decode

TAF

TAF UACC 221700Z 2218/2318 30008MPS 9999 SCT020 BKN030CB TX12/2309Z TN05/2223Z TEMPO 2218/2221 5000 -SHRA SCT015 BKN020CB FM222100 34014MPS 9999 SCT020CB BKN100 TEMPO 2221/2224 33014G19MPS 5000 -SHRA SCT010 BKN020CB TEMPO 2300/2308 33016G21MPS TEMPO 2308/2314 35012G17MPS FM231400 29006MPS 9999 SCT030 BKN100

Decode

Departure Runways

ID Width Length Bearing (true) Bearing (mag) Surface Threshold Offset Overrun Length
04 148 ft / 45 m 11,467 ft / 3,495 m 44.45° 34.59° Asphalt 0 ft / 0 m 0 ft / 0 m
22 148 ft / 45 m 11,467 ft / 3,495 m 224.48° 214.62° Asphalt 0 ft / 0 m 0 ft / 0 m

LTBS

Details ICAO LTBS (DLM)
Name DALAMAN
Region Turkey
Timezone Europe/Istanbul (UTC+3.0)
Stats Elevation 20 ft / 6 m (AMSL)
Location 36.713189° 28.792513°
Runways 1
Magnetic Variation 4.921° E

METAR

LTBS 221750Z 11004KT 9999 FEW030 BKN200 23/20 Q1013 NOSIG

Decode

TAF

Not found

Destination Runways

ID Width Length Bearing (true) Bearing (mag) Surface Threshold Offset Overrun Length
01 148 ft / 45 m 9,851 ft / 3,003 m 15.24° 10.32° Concrete 0 ft / 0 m 197 ft / 60 m
19 148 ft / 45 m 9,851 ft / 3,003 m 195.25° 190.33° Concrete 0 ft / 0 m 197 ft / 60 m